#timestamp,LO_Frequency,Hit,StdDev 
1611896415.3,286046998.3,N
1611896435.1,286046998.7,N
1611896455.9,286046997.7,N
1611896475.7,286046997.1,N
1611896495.6,286046997.1,N
1611896515.4,286046996.9,N
1611896535.2,286046996.5,N
1611896555.1,286046999.4,N
1611896556.0,286046999.4,N
1611896575.8,286046998.8,N
1611896595.6,286046998.3,N
1611896615.5,286046998.3,N
1611896635.3,286047000.7,N
1611896655.2,286046999.9,N
1611896675.9,286047002.4,N
1611896695.7,286047000.2,N
1611896715.6,286047000.3,N
1611896735.4,286047002.2,N
1611896755.3,286047002.2,N
1611896775.1,286047002.8,N
1611896776.0,286047002.8,N
1611896795.8,286047000.3,N
1611896815.7,286046998.1,N
1611896835.5,286046998.7,N
1611896855.3,286046996.8,N
1611896875.2,286046997.2,N
1611896895.0,286046996.7,N
1611896895.9,286046996.7,N
1611896915.8,286046997.3,N
1611896935.6,286046997.6,N
1611896955.4,286046997.8,N
1611896975.3,286046996.8,N
1611896995.1,286046995.7,N
1611897015.9,286046997.5,N
1611897035.7,286046997.9,N
1611897055.5,286046997.4,N
1611897075.4,286046996.7,N
1611897095.2,286046999.4,N
1611897115.0,286046999.6,N
1611897116.0,286046999.6,N
1611897135.8,286046998.7,N
1611897155.6,286046998.8,N
1611897175.5,286046998.3,N
1611897195.3,286046998.1,N
1611897215.1,286047001.2,N
1611897235.9,286046998.2,N
1611897255.7,286046999.0,N
1611897275.6,286046998.7,N
1611897295.4,286047001.2,N
1611897315.2,286047001.6,N
1611897335.1,286046999.9,N
1611897336.0,286046999.9,N
1611897355.8,286047001.0,N
1611897375.6,286047000.7,N
1611897395.5,286047001.0,N
1611897415.3,286046999.8,N
1611897435.2,286047000.8,N
1611897455.9,286047000.8,N
1611897475.7,286047001.1,N
1611897495.6,286046999.1,N
1611897515.4,286046999.4,N
1611897535.3,286046998.6,N
1611897555.1,286046996.5,N
1611897556.0,286046996.5,N
1611897575.8,286046999.2,N
1611897595.7,286046997.7,N
1611897615.5,286046997.8,N
1611897635.3,286046999.1,N
1611897655.2,286046999.2,N
1611897675.0,286046998.4,N
1611897675.9,286046998.4,N
1611897695.8,286046998.5,N
1611897715.6,286047000.7,N
1611897735.4,286046998.2,N
1611897755.3,286046998.3,N
1611897775.1,286046998.4,N
1611897795.9,286047001.1,N
1611897815.7,286047000.8,N
1611897835.5,286046998.1,N
1611897855.4,286046998.3,N
1611897875.2,286046996.8,N
1611897895.0,286046996.5,N
1611897896.0,286046996.5,N
1611897915.8,286046996.7,N
1611897935.6,286046996.9,N
1611897955.5,286047000.8,N
1611897975.3,286046998.3,N
1611897995.1,286046998.2,N
1611898015.9,286046998.9,N
1611898035.7,286046998.5,N
1611898055.6,286047000.8,N
1611898075.4,286046998.7,N
1611898095.2,286046998.9,N
1611898115.1,286046997.1,N
1611898116.0,286046997.1,N
1611898135.8,286046996.5,N
1611898155.6,286046996.7,N
1611898175.5,286046997.3,N
1611898195.3,286046997.0,N
1611898215.2,286046997.2,N
1611898235.9,286046996.8,N
1611898255.7,286046997.0,N
1611898275.6,286046996.6,N
1611898295.4,286046998.6,N
1611898315.3,286046998.4,N
1611898335.1,286046999.2,N
1611898336.0,286046999.2,N
1611898355.8,286046999.1,N
1611898375.7,286046998.8,N
1611898395.5,286046998.4,N
1611898415.3,286046998.9,N
1611898435.2,286046999.5,N
1611898455.0,286046997.4,N
1611898455.9,286046997.4,N
1611898475.8,286046997.2,N
1611898495.6,286046997.6,N
1611898515.4,286046996.7,Y
1611898535.3,286047001.0,P
1611898555.1,286047002.7,N
1611898575.9,286047000.1,N
1611898595.7,286047001.9,N
1611898615.5,286047004.0,N
1611898635.4,286047004.4,N
1611898655.2,286047001.4,N
1611898675.1,286047002.6,N
1611898676.0,286047002.6,N
1611898695.8,286047001.4,N
1611898715.6,286046999.8,N
1611898735.5,286047000.6,N
1611898755.3,286047000.9,N
1611898775.1,286046998.8,N
1611898795.9,286046999.0,N
1611898815.7,286046999.6,N
1611898835.6,286046998.6,N
1611898855.4,286046998.8,N
1611898875.2,286047001.1,N
1611898895.1,286046999.9,N
1611898896.0,286046999.9,N
1611898915.8,286047000.7,N
1611898935.7,286046998.2,N
1611898955.5,286047000.6,N
1611898975.3,286046998.3,N
1611898995.2,286046998.8,N
1611899015.0,286046998.9,N
1611899015.9,286046998.9,N
1611899035.7,286046998.4,N
1611899055.6,286046998.4,N
1611899075.4,286047000.4,N
1611899095.3,286047001.4,N
1611899115.1,286047010.7,Y
1611899135.8,286047011.9,P
1611899155.7,286047002.9,N
1611899175.5,286047005.3,N
1611899195.4,286047006.0,N
1611899215.2,286047004.0,N
1611899235.0,286047002.8,N
1611899235.9,286047002.8,N
1611899255.8,286046999.7,N
1611899275.6,286047002.3,N
1611899295.5,286047000.2,N
1611899315.3,286047000.6,N
1611899335.1,286047000.0,N
1611899355.9,286047000.6,N
1611899375.7,286046999.4,N
1611899395.5,286046998.7,N
1611899415.4,286046998.3,N
1611899435.2,286047000.2,N
1611899455.1,286046999.9,N
1611899456.0,286046999.9,N
1611899475.8,286047001.2,N
1611899495.6,286046999.8,N
1611899515.5,286047000.0,N
1611899535.3,286046999.9,N
1611899555.1,286047000.6,N
1611899575.9,286047001.6,N
1611899595.7,286047003.7,N
1611899615.6,286047003.8,N
1611899635.4,286047004.2,N
1611899655.2,286047003.6,N
1611899675.1,286047003.3,N
1611899676.0,286047003.3,N
1611899695.8,286047001.7,N
1611899715.7,286047002.3,N
1611899735.5,286047002.8,N
1611899755.3,286047000.5,N
1611899775.2,286047001.1,N
1611899795.0,286047002.5,N
1611899795.9,286047002.5,N
1611899815.8,286047002.0,N
1611899835.6,286046999.8,N
1611899855.4,286047000.5,N
1611899875.3,286047001.0,N
1611899895.1,286046998.3,N
1611899915.8,286046998.8,N
1611899935.7,286046998.7,N
1611899955.5,286046998.9,N
1611899975.4,286046998.1,N
1611899995.2,286047001.2,N
